Regional Weather Roundup
Issued by NWS

Home | Current Version | Previous Version | Text Only | Print | Product List | Glossary Off
Versions: 1 2 3 4 5 6 7 8 9 10 11 12 13 14 15 16 17 18 19 20 21 22 23 24 25 26 27 28 29 30 31 32 33 34 35 36 37 38 39 40 41 42 43 44 45 46 47 48 49 50

000
ASUS43 KMPX 021701
RWRMN
WEATHER ROUNDUP FOR MINNESOTA
NATIONAL WEATHER SERVICE TWIN CITIES/CHANHASSEN MN
1200 PM CDT MON MAY 02 2016


NOTE: "FAIR" INDICATES FEW OR NO CLOUDS BELOW 12,000 FEET WITH NO
SIGNIFICANT WEATHER AND/OR OBSTRUCTIONS TO VISIBILITY. N/A MEANS
CURRENT SKY AND/OR WEATHER CONDITIONS ARE NOT AVAILABLE.

MNZ060>063-068>070-021800-
   Twin Cities Metro

CITY           SKY/WX    TMP DP  RH WIND       PRES   REMARKS
TWIN CITIES    SUNNY     62  30  29 CALM      30.09F
ST PAUL        SUNNY     62  32  32 NE3       30.10F
CRYSTAL        SUNNY     62  30  29 VRB3      30.08F
BLAINE         MOSUNNY   63  32  31 CALM      30.09F
EDEN PRAIRIE   MOSUNNY   63  32  31 W6        30.08F
SOUTH ST PAUL  SUNNY     62  31  31 NW5       30.09F
LAKE ELMO      FAIR      61  36  39 SE5       30.10F
$$
MNZ001>005-007-008-013>017-022>024-027-028-021800-
   Northwest Minnesota

CITY           SKY/WX    TMP DP  RH WIND       PRES   REMARKS
BEMIDJI        SUNNY     62  28  27 E9        30.05S
HALLOCK        SUNNY     66  25  20 SE9       30.01F
ROSEAU         SUNNY     63  25  23 SE6       30.04F
WARROAD        SUNNY     57  37  47 NE8       30.06S
THIEF RVR FALL SUNNY     64  27  24 CALM      30.04F
CROOKSTON      SUNNY     66  28  24 S8        30.03S
FOSSTON        SUNNY     64  25  22 N3        30.04S
DETROIT LAKES  MOSUNNY   61  28  29 CALM      30.05S
MOORHEAD       SUNNY     64  28  25 CALM      30.03S
PARK RAPIDS    SUNNY     64  25  22 CALM      30.04F
MAHNOMEN       FAIR      64  29  27 E6        30.03S
$$
MNZ006-009>011-018-025>026-021800-
   North Central Minnesota

CITY           SKY/WX    TMP DP  RH WIND       PRES   REMARKS
BAUDETTE       SUNNY     63  26  24 VRB3      30.06S
FLAG ISLAND    SUNNY     52  34  50 S5        30.06S
INTL FALLS     SUNNY     61  31  32 E8        30.06F
WASKISH        SUNNY     61  32  33 W6        30.06S
BIG FORK       MOSUNNY   63  28  27 CALM      30.06S
LONGVILLE      SUNNY     61  28  29 W5        30.06S
GRAND RAPIDS   PTSUNNY   57  30  35 NW7       30.08F
CRANE LAKE     SUNNY     59  28  31 N6        30.09F
ORR            SUNNY     63  25  23 W3        30.04F
COOK           MOSUNNY   61  34  36 CALM      30.07S
WALKER         FAIR      60  29  30 E7        30.05S
$$
MNZ012-019>021-037-021800-
   Northeast Minnesota

CITY           SKY/WX    TMP DP  RH WIND       PRES   REMARKS
DULUTH         MOSUNNY   59  33  37 S8        30.08F
ELY            MOSUNNY   57  27  30 W6        30.07F
HIBBING        SUNNY     59  31  34 W6        30.07F
EVELETH        SUNNY     59  30  33 CALM      30.09S
DULUTH HARBOR  SUNNY     43  37  81 NE5       30.12S
TWO HARBORS    SUNNY     61  39  44 S9        30.08S
SILVER BAY     SUNNY     57  30  35 SE10      30.07F
GRAND MARAIS     N/A     40  33  76 E3        30.11S
G MARAIS ARPRT SUNNY     57  25  28 CALM      30.09S
$$
MNZ029>031-032-039>041-046>048-054>057-064-021800-
   West Central Minnesota

CITY           SKY/WX    TMP DP  RH WIND       PRES   REMARKS
FERGUS FALLS   SUNNY     64  34  32 SW5       30.02F
WHEATON        SUNNY     66  34  30 S5        30.06F
MORRIS         SUNNY     64  34  32 W3        30.05F
ALEXANDRIA     MOSUNNY   60  28  29 W6        30.07S
ELBOW LAKE     FAIR      62  32  32 SW8       30.05F
WADENA         MOSUNNY   63  34  34 NW3       30.05S
GLENWOOD       SUNNY     64  28  25 W6        30.07F
APPLETON       SUNNY     63  30  29 CALM      30.06F
BENSON         MOSUNNY   64  28  25 CALM      30.06F
ORTONVILLE     PTSUNNY   63  28  27 NW3       30.05F
MADISON        MOSUNNY   64  30  27 CALM      30.06F
WILLMAR        FAIR      63  32  31 NW7       30.08F
$$
MNZ033>034-036-042>043-049>051-058-059-021800-
   Central Minnesota

CITY           SKY/WX    TMP DP  RH WIND       PRES   REMARKS
ST CLOUD       SUNNY     61  31  32 CALM      30.08F
SAUK CENTRE    FAIR      62  33  33 SW7       30.06F
PAYNESVILLE    MOSUNNY   62  30  29 S9        30.08F
AITKIN         MOSUNNY   63  23  22 CALM      30.06F
PINE RIVER     PTSUNNY   63  36  36 NW5       30.08F
BRAINERD       PTSUNNY   59  29  31 W6        30.07F
STAPLES        SUNNY     63  27  25 W9        30.05F
LONG PRAIRIE   FAIR      61  32  33 CALM      30.07S
LITTLE FALLS   SUNNY     63  32  31 CALM      30.07F
LITCHFIELD     SUNNY     63  34  34 CALM      30.09S
BUFFALO        SUNNY     61  33  34 W3        30.09F
MAPLE LAKE     SUNNY     61  35  37 CALM      30.10S
HUTCHINSON       N/A     62  35  37 CALM      30.10
$$
MNZ037-044-045-052-053-021800-
   East Central Minnesota

CITY           SKY/WX    TMP DP  RH WIND       PRES   REMARKS
PRINCETON      SUNNY     63  34  34 NE3       30.09F
MORA           SUNNY     59  32  36 SW3       30.10F
CAMBRIDGE      SUNNY     64  41  42 CALM      30.07F
RUSH CITY      SUNNY     61  33  34 N5        30.09F
MOOSE LAKE     SUNNY     61  34  36 E6        30.06F
HINCKLEY       FAIR      61  34  36 CALM      30.08F
CLOQUET        MOSUNNY   61  30  31 E6        30.08F
MCGREGOR       MOSUNNY   61  32  33 SE3       30.08S
$$
MNZ071>073-080-081-089-090-097-098-021800-
   Southwest Minnesota

CITY           SKY/WX    TMP DP  RH WIND       PRES   REMARKS
MONTEVIDEO     MOSUNNY   66  36  32 CALM      30.09F
GRANITE FALLS  MOSUNNY   63  33  32 CALM      30.09F
CANBY          MOSUNNY   65  35  33 CALM      30.08F
MARSHALL       PTSUNNY   61  33  35 SE5       30.09F
REDWOOD FALLS  SUNNY     62  31  31 SW6       30.08F
OLIVIA         SUNNY     61  32  33 NW7       30.07F
PIPESTONE      PTSUNNY   61  27  27 CALM      30.09F
WINDOM         MOSUNNY   61  34  36 CALM      30.10F
WORTHINGTON    MOSUNNY   57  34  41 VRB3      30.11F
JACKSON        CLOUDY    59  32  36 NW5       30.11F
TRACY          MOSUNNY   61  34  36 N6        30.09F
SLAYTON        MOSUNNY   58  31  35 NE3       30.11S
$$
MNZ065>067-074>077-082>085-091>093-021800-
   South Central Minnesota

CITY           SKY/WX    TMP DP  RH WIND       PRES   REMARKS
MANKATO        MOSUNNY   59  32  36 W3        30.10F
NEW ULM        MOSUNNY   61  34  36 CALM      30.10S
ST JAMES       MOSUNNY   54  30  40 CALM      30.11F
FAIRMONT       PTSUNNY   57  21  24 W5        30.11S
GLENCOE        SUNNY     61  38  42 CALM      30.09F
FARIBAULT      MOSUNNY   63  34  34 SW5       30.11S
OWATONNA       MOSUNNY   61  34  36 CALM      30.10S
WASECA         PTSUNNY   59  37  44 NW6       30.11F
ALBERT LEA     CLOUDY    57  37  47 CALM      30.10S
$$
MNZ078>079-086>088-094>096-021800-
   Southeast Minnesota

CITY           SKY/WX    TMP DP  RH WIND       PRES   REMARKS
ROCHESTER      MOSUNNY   59  40  49 SW8       30.11F
RED WING       SUNNY     64  32  29 N5        30.09S
STANTON        SUNNY     62  33  32 CALM      30.09F
DODGE CENTER   MOSUNNY   64  41  42 CALM      30.10F
WINONA         MOSUNNY   61  39  44 CALM      30.11S
AUSTIN         MOSUNNY   57  39  51 CALM      30.10F
PRESTON        SUNNY     57  40  52 S6        30.11F
$$
ABBREVIATIONS USED IN REMARKS
   TC - TEMPERATURES IN CELSIUS
  WCI - WIND CHILL INDEX
   HX - HEAT INDEX
  VSB - VISIBILITY
$$




USA.gov is the U.S. government's official web portal to all federal, state and local government web resources and services.